Location: Vihti�l�
(61.3833°N, 23.0667°E)
Time: 04:44:03
(UTC+00:00)

NOSS 3-4 (C) - Pass Details

Date: 29 November 2020
Orbit: 879 x 1333 km, 63.4° (Epoch: 31 December)

Event Time Altitude Azimuth Distance (km) Brightness Sun altitude
Exits shadow 04:00:55 11° 216° (SW) 2,518 5.4 -20.6°
Maximum altitude 04:06:34 57° 140° (SE) 1,118 4.0 -19.9°
Drops below altitude 10° 04:13:01 10° 64° (ENE) 2,842 6.7 -19.2°
Sets 04:15:49 0° 60° (ENE) 3,867 7.4 -18.8°
